Find Starlink 32647

NORAD ID: 62200 Int'l Des: 2024-229 Owner: SPXS Country: US Constellation: starlink operational
LEOCIRCULAR

現在のビュー

3D地球を読み込み中...

About Starlink 32647

Starlink 32647 (NORAD 62200) is a starlink constellation satellite (v2 mini) launched Dec 4, 2024 by SPXS of US. It operates in LEO, CIRCULAR orbit with a mass of 730.00 kg.

次回通過

Passes for default location (London). Set your location on the main map for personalized predictions.

高度履歴

Loading altitude history...

軌道要素

1 62200U 24229J 26263.04026914 .00010958 00000-0 40709-3 0 9990
2 62200 43.0009 253.2227 0001318 254.6458 105.4248 15.27584262100285
Epoch: Sep 20, 2026 • Age: 24 hours

現在のステータス

高度 488.5 km
遠地点 / 近地点 N/A
速度 7.62 km/s
衛星直下点 -25.18°S, 75.75°E
打ち上げ日 Dec 4, 2024
運用期間 1.7 years
タイプ internet

技術仕様

分類 Payload
質量 730.00 kg
乾燥質量 700.00 kg
長さ 0.30 m
スパン 29.00 m
形状 ? Box + pan
製造者 SPXS
バスタイプ Starlink V2M
フェーズステータス In Orbit
所有者/国 SPXS/US

Most Searched